www.pogodaiklimat.ru

Погода и климат >> Архив погоды >> Румыния >> Сулина


ПОГОДА в Сулине

  • Прогноз погоды в Сулине
  • Монитор погоды в Сулине

АРХИВ ПОГОДЫ в Сулине

Время (UTC), дата Ветер
(напр.,м/с)
 
Видим.   Явления Облачность Т
(С)
Тd
(С)
f
(%)
Тe
(С)
Тes
(С)
Комфортность P
(гПа)
Po
(гПа)
Тmin
(С)
Tmax
(С)
R
(мм)
R24
(мм)
S
(см)
10 12.07 СЗ 4-5
{7}
10 км 6/0
[Ac trans Cs]
+21.5 +10.8 51 +23 +32 комфорт 1010.6 1009.3
11 12.07 В 2-4
{6}
10 км 8/0
[Ac trans Cs]
+22.1 +11.3 50 +24 +36 комфорт 1010.6 1009.2
12 12.07 В 3-4
{4}
10 км 8/3 600 м
[Cu med, cong Ac As]
+20.8 +20.0 95 +26 +30 душно 1010.5 1009.1
13 12.07 Ю 5-6
{6}
10 км 8/3 600 м
[Cu med, cong Ac As]
+21.2 +11.2 53 +23 +25 комфорт 1010.4 1009.0
14 12.07 ЮВ 1-3
{5}
10 км 8/3 600 м
[Cu med, cong Ac As]
+21.5 +12.4 56 +24 +27 комфорт 1010.3 1008.9
15 12.07 ЮВ 1-2
{4}
10 км в посл. час ливневой дождь 8/3 600 м
[Cb cap Ac As]
+22.6 +12.9 54 +25 +27 комфорт 1010.1 1008.8 1
16 12.07 Ю 5-6
{6}
10 км 8/3 600 м
[Cb cap Ac cuf]
+21.8 +13.7 60 +25 +25 комфорт 1010.0 1008.7
17 12.07 ЮЗ 1-1
{6}
10 км 8/3 600 м
[Cb cap Ac cuf]
+22.3 +10.8 48 +24 +24 комфорт 1010.2 1008.9
18 12.07 ЮЗ 2-2
{5}
10 км {ливн. осадки} 8/3 600 м
[Cu med, cong Ac As]
+21.5 +20.0 91 +27 +27 душно 1010.4 1009.1 +17.2 +23.3
19 12.07 ЮЗ 5-6
{6}
10 км 9/0
[Ac As]
+20.3 +13.3 64 +22 +22 комфорт 1010.8 1009.4
20 12.07 З 3-4
{6}
10 км 8/0
[Ac As]
+19.7 +13.7 68 +22 +22 комфорт 1011.2 1009.8
21 12.07 З 4-5
{6}
10 км 8/0
[Ac As]
+19.5 +14.6 73 +21 +21 комфорт 1010.9 1009.5
22 12.07 СЗ 3-5
{5}
10 км 8/0
[Ac As]
+20.5 +13.5 64 +23 +23 комфорт 1010.9 1009.5
23 12.07 СЗ 2-4
{5}
10 км 6/0
[Ac As]
+20.6 +13.2 63 +24 +24 комфорт 1010.8 1009.5
00 13.07 СЗ 4-5
{5}
20 км 4/0
[Ac trans]
+19.9 +14.7 72 +22 +22 комфорт 1010.9 1009.5
01 13.07 З 3-5
{5}
20 км 4/0
[Ac trans]
+18.7 +14.8 78 +20 +20 1010.7 1009.3
02 13.07 З 4-5
{5}
20 км ясно +18.8 +14.0 74 +20 +20 1010.6 1009.2
03 13.07 СЗ 4-5
{6}
20 км ясно +18.9 +14.3 75 +20 +20 1010.6 1009.2
04 13.07 СЗ 3-4
{5}
10 км ясно +19.1 +14.7 76 +21 +22 комфорт 1010.7 1009.4
05 13.07 СЗ 4-5
{6}
10 км ясно +18.7 +14.3 76 +19 +22 1011.1 1009.7
06 13.07 СЗ 2-3
{4}
10 км ясно +19.4 +20.0 100 +22 +30 комфорт 1011.5 1010.1 +18.5 +21.5
07 13.07 СЗ 2-3
{3}
10 км ясно +20.6 +13.2 63 +24 +35 комфорт 1011.7 1010.3
08 13.07 СЗ 1-2
{2}
10 км ясно +22.5 +12.8 54 +25 +43 комфорт 1011.6 1010.3
09 13.07 СВ 1-1
{2}
10 км 1/1 600 м
[Cu med, cong]
+25.2 +13.0 47 +27 +46 жарко 1011.4 1010.1
10 13.07 ЮВ 1-3
{3}
10 км 3/3 600 м
[Cu med, cong]
+24.9 +14.3 52 +27 +43 жарко 1011.3 1010.0
11 13.07 ЮВ 1-4
{4}
10 км 4/4 600 м
[Cu med, cong]
+24.1 +14.1 54 +27 +39 жарко 1011.1 1009.8
12 13.07 ЮВ 1-3
{4}
10 км 4/4 600 м
[Cu med, cong]
+25.0 +20.0 74 +31 +41 очень
душно
1010.9 1009.5
13 13.07 Ю 7-8
{8}
10 км 4/4 600 м
[Cu med, cong]
+22.9 +13.5 55 +26 +28 жарко 1010.7 1009.3
14 13.07 Ю 7-8
{8}
10 км 5/5 600 м
[Cu med, cong]
+23.0 +14.5 59 +27 +28 душно 1010.5 1009.1
15 13.07 Ю 8-9
{9}
10 км 5/3 600 м
[Cu med, cong Ac trans]
+23.0 +13.8 56 +26 +27 жарко 1009.9 1008.6
16 13.07 Ю 6-7
{9}
10 км 5/3 600 м
[Cu med, cong Ac trans]
+23.1 +15.3 61 +27 +28 душно 1010.2 1008.8
17 13.07 Ю 6-7
{8}
10 км 4/1 600 м
[Cu med, cong Ac lent]
+22.8 +14.8 61 +27 +27 душно 1010.2 1008.8
18 13.07 Ю 7-8
{8}
10 км 5/0
[Ac lent Ci sp]
+22.7 +15.0 62 +27 +27 душно 1010.1 1008.7 +19.4 +26.4
19 13.07 Ю 6-7
{8}
20 км 5/0
[Ac lent Ci sp]
+22.4 +16.3 68 +27 +27 душно 1010.1 1008.8
20 13.07 Ю 6-6
{7}
20 км 4/0
[Ci sp]
+22.2 +16.2 69 +26 +26 душно 1010.1 1008.8
21 13.07 Ю 5-6
{7}
20 км 5/0
[Ci sp]
+22.1 +15.8 67 +26 +26 душно 1009.7 1008.4
22 13.07 Ю 5-6
{6}
20 км 5/0
[Ci sp]
+22.0 +16.5 71 +26 +26 душно 1009.7 1008.3
23 13.07 Ю 4-5
{6}
20 км 4/0
[Ci sp]
+21.9 +16.6 72 +26 +26 душно 1009.3 1007.9
00 14.07 Ю 3-4
{5}
20 км 4/0
[Ci sp]
+21.7 +17.2 76 +26 +26 душно 1009.1 1007.7
01 14.07 ЮЗ 3-4
{4}
20 км 4/0
[Ci sp]
+21.4 +16.8 75 +25 +25 комфорт 1008.7 1007.3
02 14.07 ЮЗ 2-2
{4}
20 км 6/0
[Ac trans Ci sp]
+21.3 +16.5 74 +25 +25 комфорт 1008.5 1007.2
03 14.07 ЮЗ 1-1
{2}
10 км 5/0
[Ac trans]
+21.0 +16.2 74 +26 +26 душно 1008.5 1007.2
04 14.07 штиль 0-1
{1}
10 км 8/1 600 м
[Cu med, cong Ac trans Ci sp]
+22.0 +16.5 71 +26 +27 душно 1008.5 1007.2
05 14.07 штиль 0-1
{1}
10 км 8/1 600 м
[Cu med, cong Ac trans Ci sp]
+25.0 +16.7 60 +29 +32 душно 1008.5 1007.1
06 14.07 В 2-3
{4}
10 км 8/3 600 м
[Cu med, cong Ac trans Ci fib]
+23.3 +20.0 82 +30 +34 очень
душно
1008.6 1007.2 +21.0 +25.2
07 14.07 ЮВ 1-3
{4}
10 км 5/1 600 м
[Cu med, cong Ac trans Ci fib]
+24.7 +17.9 66 +29 +38 душно 1008.5 1007.2
08 14.07 ЮВ 2-2
{3}
10 км 5/3 600 м
[Cu med, cong Ac trans Ci fib]
+24.4 +17.2 64 +28 +37 душно 1009.3 1007.9
09 14.07 В 2-4
{5}
10 км 6/3 600 м
[Cu med, cong Ac cuf Ci sp]
+25.4 +15.3 54 +28 +38 жарко 1008.2 1006.9
10 14.07 ЮВ 1-4
{5}
10 км 6/3 600 м
[Cu med, cong Ac cuf Ci sp]
+25.5 +15.0 52 +28 +40 жарко 1008.1 1006.7
11 14.07 ЮВ 1-4
{4}
10 км 8/1 600 м
[Cu med, cong Cs]
+24.6 +15.0 55 +27 +43 жарко 1008.2 1006.9
12 14.07 ЮВ 2-5
{5}
10 км 8/1 600 м
[Cu med, cong Cs]
+23.8 +30.1 100 +32 +44 очень
душно
1007.8 1006.5
13 14.07 Ю 3-4
{5}
10 км 8/1 600 м
[Cu med, cong Cs]
+23.7 +14.8 57 +26 +34 жарко 1008.3 1007.0
14 14.07 ЮВ 1-3
{4}
10 км 9/1 600 м
[Cu med, cong Cs]
+23.6 +15.3 60 +27 +33 жарко 1007.8 1006.5
15 14.07 Ю 2-3
{4}
10 км 9/1 600 м
[Cu med, cong Cs]
+23.5 +15.2 60 +26 +30 жарко 1007.6 1006.2
16 14.07 Ю 1-2
{3}
10 км 8/1 600 м
[Cu med, cong Cs]
+23.9 +15.0 57 +27 +28 жарко 1007.6 1006.3
17 14.07 ЮВ 1-2
{2}
10 км 8/1 600 м
[Cu med, cong Cs]
+22.9 +14.9 61 +27 +27 душно 1007.4 1006.0
18 14.07 В 1-2
{2}
10 км 8/1 600 м
[Cu med, cong Cs]
+22.2 +20.0 87 +28 +28 душно 1007.5 1006.2 +22.0 +25.9
19 14.07 В 1-2
{2}
20 км 3/0
[Cs]
+21.9 +14.6 63 +25 +25 комфорт 1007.8 1006.4
20 14.07 СВ 1-2
{3}
20 км ясно +22.0 +15.6 67 +26 +26 душно 1007.9 1006.5
21 14.07 С 3-4
{5}
20 км 1/0
[Ci fib]
+21.9 +15.8 68 +26 +26 душно 1007.6 1006.2
22 14.07 С 3-3
{4}
20 км ясно +21.5 +16.9 75 +25 +25 комфорт 1007.1 1005.7
23 14.07 С 3-4
{4}
20 км ясно +21.2 +16.0 72 +25 +25 комфорт 1007.1 1005.7
00 15.07 С 4-5
{5}
20 км ясно +20.4 +16.7 79 +24 +24 комфорт 1007.0 1005.7
01 15.07 С 6-7
{7}
20 км ясно +19.9 +17.4 86 +22 +22 комфорт 1006.4 1005.0
02 15.07 С 4-5
{7}
20 км 5/0
[Cs]
+19.9 +17.8 88 +23 +23 комфорт 1006.4 1005.0
03 15.07 С 5-6
{6}
10 км 5/1 600 м
[Cu med, cong Cs]
+19.1 +17.5 90 +21 +21 комфорт 1006.7 1005.4
04 15.07 С 6-7
{7}
10 км 5/1 600 м
[Cu med, cong Cs]
+18.7 +16.7 88 +19 +20 1006.3 1004.9
05 15.07 С 6-8
{8}
10 км 5/1 600 м
[Cu med, cong Cs]
+19.5 +16.7 84 +21 +23 комфорт 1006.4 1005.1
06 15.07 С 5-7
{7}
10 км 5/3 600 м
[Cu hum Ac trans]
+20.6 +30.1 100 +25 +28 комфорт 1006.8 1005.5 +18.6 +22.2
07 15.07 С 5-6
{7}
10 км 5/0
[Ac trans]
+22.0 +15.5 67 +26 +30 душно 1006.8 1005.5
08 15.07 С 6-8
{8}
10 км 5/0
[Ac trans]
+23.1 +14.2 57 +27 +31 душно 1006.8 1005.4
09 15.07 С 8-10
{10}
10 км 6/0
[Ac trans]
+23.6 +14.2 56 +26 +28 жарко 1006.9 1005.5
10 15.07 С 8-9
{10}
10 км 5/3 600 м
[Cu med, cong Ac trans]
+23.7 +14.2 55 +26 +28 жарко 1006.9 1005.6
11 15.07 С 6-7
{9}
10 км 5/3 600 м
[Cu med, cong Ac trans]
+24.0 +14.5 55 +27 +31 жарко 1007.2 1005.8
12 15.07 СВ 6-7
{7}
10 км 5/3 600 м
[Cu med, cong Ac trans]
+23.6 +30.1 100 +32 +35 очень
душно
1007.0 1005.7
13 15.07 СВ 5-6
{7}
10 км 4/4 600 м
[Cu med, cong]
+23.8 +15.2 59 +27 +30 жарко 1007.0 1005.7
14 15.07 СВ 4-5
{5}
10 км 4/4 600 м
[Cu med, cong]
+24.1 +15.6 59 +27 +30 жарко 1007.2 1005.8
15 15.07 В 3-4
{5}
10 км 4/4 600 м
[Cu med, cong]
+24.3 +15.6 58 +27 +29 жарко 1007.1 1005.8
16 15.07 С 2-5
{5}
10 км 5/4 600 м
[Cu med, cong Ac cuf]
+23.8 +16.0 62 +27 +28 жарко 1007.9 1006.5
17 15.07 СЗ 7-9
{12}
10 км 5/4 600 м
[Cu med, cong Ac cuf]
+21.5 +15.2 67 +25 +25 комфорт 1007.7 1006.4
18 15.07 С 8-10
{10}
10 км 5/4 600 м
[Cu med, cong Ac cuf]
+21.5 +15.7 70 +25 +25 комфорт 1008.3 1007.0 +20.6 +24.3
19 15.07 С 6-9
{10}
10 км 8/0
[Ac As]
+21.1 +16.0 73 +24 +24 комфорт 1008.8 1007.4
20 15.07 СЗ 6-7
{8}
10 км 5/0
[Ac trans]
+20.4 +16.1 76 +23 +23 комфорт 1008.8 1007.4
21 15.07 СЗ 4-6
{7}
10 км 4/0
[Ac trans]
+19.9 +16.0 78 +22 +22 комфорт 1008.8 1007.5
22 15.07 СЗ 4-6
{6}
10 км 4/0
[Ac trans]
+19.9 +15.2 74 +22 +22 комфорт 1008.9 1007.6
23 15.07 СЗ 4-5
{6}
10 км 4/0
[Ac trans]
+19.8 +15.9 78 +22 +22 комфорт 1008.8 1007.4
00 16.07 СЗ 6-7
{7}
10 км 4/0
[Ac trans]
+19.3 +16.0 81 +21 +21 комфорт 1008.8 1007.5
01 16.07 СЗ 6-8
{8}
10 км 3/0
[Ac trans]
+18.7 +16.0 84 +19 +19 1008.8 1007.5
02 16.07 СЗ 5-6
{8}
10 км 4/0
[Ac trans]
+18.4 +16.4 88 +19 +19 1009.0 1007.6
03 16.07 СЗ 4-6
{7}
10 км 5/0
[Ac trans]
+18.1 +16.2 89 +18 +18 1009.1 1007.7
04 16.07 СЗ 5-7
{7}
10 км 4/0
[Ac trans]
+17.7 +15.9 89 +17 +18 1009.4 1008.0
05 16.07 СЗ 5-6
{7}
10 км 4/0
[Ac trans]
+17.8 +16.1 90 +17 +19 1009.5 1008.2
06 16.07 СЗ 4-5
{6}
10 км 6/0
[Ac As]
+19.2 +30.1 100 +21 +24 комфорт 1009.5 1008.1 +17.4 +21.6
07 16.07 З 4-6
{6}
10 км 6/0
[Ac As]
+20.5 +16.6 78 +24 +28 комфорт 1009.7 1008.3
08 16.07 СЗ 3-4
{6}
10 км 4/0
[Ac trans]
+21.6 +15.2 67 +25 +34 комфорт 1009.8 1008.4
09 16.07 С 3-7
{7}
10 км 4/0
[Ac trans]
+22.5 +16.8 70 +27 +38 душно 1009.8 1008.4
10 16.07 СВ 4-6
{6}
10 км 4/0
[Ac trans]
+22.2 +16.4 70 +26 +36 душно 1009.6 1008.3
11 16.07 СВ 3-4
{5}
10 км 5/0
[Ac trans]
+23.1 +15.6 63 +27 +38 душно 1009.8 1008.5
12 16.07 В 2-3
{4}
10 км 6/0
[Ac As]
+23.5 +20.0 81 +29 +38 душно 1009.4 1008.1
13 16.07 ЮВ 1-2
{3}
10 км 8/0
[Ac As]
+25.9 +14.5 49 +28 +34 жарко 1009.7 1008.3
14 16.07 Ю 4-5
{5}
10 км 8/3 600 м
[Cu med, cong Ac cuf]
+23.7 +14.4 56 +26 +28 жарко 1009.5 1008.2
15 16.07 Ю 5-6
{6}
10 км 8/3 600 м
[Cu med, cong Ac cuf]
+24.1 +15.9 60 +27 +28 жарко 1009.2 1007.8
16 16.07 Ю 5-6
{7}
10 км 8/3 600 м
[Cu med, cong Ac cuf]
+23.2 +17.0 68 +28 +29 душно 1009.0 1007.7
17 16.07 ЮЗ 4-5
{6}
10 км 8/3 600 м
[Cu med, cong Ac cuf]
+23.4 +16.3 64 +28 +28 душно 1009.1 1007.8
18 16.07 ЮЗ 5-6
{6}
10 км 8/0
[Ac As]
+22.7 +20.1 85 +29 +29 очень
душно
1009.0 1007.6 +19.2 +26.5
19 16.07 ЮЗ 5-6
{6}
10 км 8/0
[Ac As]
+22.1 +17.7 76 +27 +27 душно 1009.2 1007.9
20 16.07 ЮЗ 5-6
{6}
10 км 6/0
[Ac As]
+21.7 +17.6 78 +26 +26 душно 1009.5 1008.2
21 16.07 З 4-5
{7}
10 км 6/0
[Ac As]
+20.7 +17.8 83 +25 +25 комфорт 1009.6 1008.3
22 16.07 З 4-5
{5}
10 км 8/0
[Ac As]
+20.5 +17.6 83 +24 +24 комфорт 1009.6 1008.3
23 16.07 СЗ 5-6
{6}
10 км 4/0
[Ac trans]
+22.0 +14.3 62 +25 +25 комфорт 1009.3 1007.9
00 17.07 СЗ 6-6
{6}
20 км ясно +21.2 +14.7 66 +24 +24 комфорт 1009.3 1007.9
01 17.07 СЗ 5-6
{6}
20 км ясно +20.2 +14.0 68 +22 +22 комфорт 1009.0 1007.7
02 17.07 СЗ 5-6
{7}
20 км ясно +19.3 +14.6 74 +21 +21 комфорт 1008.9 1007.5
03 17.07 СЗ 4-5
{6}
10 км ясно +18.9 +14.8 77 +20 +20 1009.0 1007.7
04 17.07 СЗ 4-4
{5}
10 км ясно +18.4 +14.4 78 +19 +20 1009.0 1007.7
05 17.07 СЗ 4-5
{6}
10 км ясно +18.8 +14.8 78 +20 +22 1009.1 1007.7
06 17.07 СЗ 4-5
{5}
10 км ясно +19.7 +20.0 100 +23 +28 комфорт 1009.3 1008.0 +18.4 +22.7
07 17.07 СЗ 3-4
{5}
20 км ясно +21.7 +16.0 70 +25 +35 комфорт 1009.3 1008.0
08 17.07 С 2-5
{5}
20 км 1/1 600 м
[Cu hum]
+24.4 +15.6 58 +27 +41 жарко 1009.1 1007.8
09 17.07 СВ 5-6
{6}
20 км 1/1 600 м
[Cu hum]
+24.3 +13.2 50 +26 +35 жарко 1009.0 1007.6
10 17.07 СВ 3-5
{5}
20 км 3/3 600 м
[Cu med, cong]
+24.6 +12.2 46 +26 +37 жарко 1009.2 1007.9
11 17.07 В 3-4
{4}
20 км 3/3 600 м
[Cu med, cong]
+25.0 +13.0 47 +27 +37 жарко 1009.0 1007.6
12 17.07 В 1-3
{4}
20 км 3/3 600 м
[Cu med, cong]
+27.6 0.0 17 +25 +38 комфорт 1008.8 1007.5
13 17.07 Ю 3-5
{5}
20 км 3/3 600 м
[Cu med, cong]
+25.4 +12.1 43 +27 +34 жарко 1008.6 1007.2
14 17.07 Ю 5-6
{6}
20 км 3/3 600 м
[Cu med, cong]
+25.2 +13.3 48 +27 +30 жарко 1008.2 1006.9
15 17.07 Ю 5-6
{6}
20 км 3/3 600 м
[Cu med, cong]
+25.2 +14.5 51 +28 +29 жарко 1007.7 1006.4
16 17.07 Ю 5-6
{7}
20 км 3/3 600 м
[Cu med, cong]
+24.8 +16.0 58 +28 +29 жарко 1007.7 1006.3
17 17.07 Ю 6-7
{7}
20 км 3/3 600 м
[Cu med, cong]
+24.2 +16.7 63 +28 +28 душно 1007.9 1006.5
18 17.07 Ю 6-7
{7}
20 км 1/1 600 м
[Cu hum]
+24.0 +30.1 100 +33 +33 очень
душно
1008.1 1006.7 +19.7 +30.1
19 17.07 Ю 4-5
{6}
20 км 1/1 600 м
[Cu hum]
+23.5 +16.4 64 +27 +27 душно 1008.4 1007.1
20 17.07 Ю 4-4
{5}
20 км ясно +23.3 +16.7 66 +28 +28 душно 1008.7 1007.4
21 17.07 ЮЗ 3-4
{5}
10 км ясно +22.5 +17.7 74 +28 +28 душно 1008.8 1007.4
22 17.07 ЮЗ 4-5
{5}
10 км ясно +22.2 +17.7 76 +27 +27 душно 1008.6 1007.2
23 17.07 ЮЗ 5-6
{6}
10 км ясно +22.0 +18.2 79 +27 +27 душно 1008.5 1007.1
00 18.07 ЮЗ 4-5
{6}
10 км ясно +21.3 +17.8 80 +25 +25 комфорт 1008.2 1006.9
01 18.07 СЗ 5-7
{7}
10 км ясно +21.0 +18.3 85 +25 +25 комфорт 1008.6 1007.2
02 18.07 С 9-11
{11}
10 км 4/1 600 м
[Cu hum Ac trans]
+20.6 +16.1 75 +23 +23 комфорт 1008.6 1007.3
03 18.07 С 9-12
{12}
10 км 9/3 600 м
[Cu med, cong Ac As]
+21.2 +16.4 74 +25 +25 комфорт 1009.2 1007.9
04 18.07 С 8-11
{12}
10 км 9/3 600 м
[Cu med, cong Ac As]
+21.1 +16.1 73 +24 +24 комфорт 1009.8 1008.5
05 18.07 С 8-10
{13}
10 км 9/0
[Ac As]
+21.6 +16.5 73 +25 +26 комфорт 1010.3 1009.0
06 18.07 С 7-9
{11}
10 км 6/0
[Ac und]
+21.9 +30.1 100 +29 +30 очень
душно
1010.7 1009.4 +20.1 +24.0
07 18.07 С 9-10
{12}
10 км 3/0
[Ac trans]
+22.1 +16.2 69 +26 +27 душно 1011.1 1009.8
08 18.07 С 8-10
{12}
10 км 3/0
[Ac trans]
+22.3 +14.7 62 +26 +28 жарко 1011.5 1010.1
09 18.07 СВ 6-9
{10}
10 км ясно +22.5 +15.5 65 +26 +33 жарко 1012.1 1010.8
10 18.07 СВ 5-7
{8}
10 км 1/0
[Ci fib]
+22.6 +14.7 61 +26 +36 жарко 1012.3 1011.0
11 18.07 СВ 4-5
{6}
10 км ясно +23.1 +14.4 58 +27 +39 душно 1012.5 1011.1
12 18.07 В 3-5
{5}
10 км ясно +23.5 +30.1 100 +32 +44 очень
душно
1012.5 1011.2
13 18.07 В 1-4
{5}
10 км ясно +25.7 +14.2 49 +28 +41 жарко 1012.6 1011.3
14 18.07 Ю 3-5
{5}
10 км ясно +24.0 +15.6 59 +27 +33 жарко 1012.7 1011.4
15 18.07 Ю 5-6
{6}
10 км ясно +23.7 +15.9 62 +27 +29 жарко 1012.6 1011.3
16 18.07 Ю 5-6
{6}
10 км 1/0
[Ac cast]
+23.9 +15.4 59 +27 +28 жарко 1012.5 1011.1
17 18.07 Ю 5-5
{6}
10 км 1/0
[Ac cast]
+23.7 +15.9 62 +27 +27 жарко 1012.7 1011.3
18 18.07 Ю 5-6
{6}
10 км 1/0
[Ac cast]
+23.3 +30.1 100 +33 +33 очень
душно
1013.2 1011.9 +21.7 +26.3
19 18.07 ЮЗ 3-4
{7}
20 км ясно +22.7 +17.6 73 +28 +28 душно 1014.1 1012.8
20 18.07 ЮЗ 3-3
{4}
20 км ясно +22.4 +18.0 76 +27 +27 душно 1014.3 1013.0
21 18.07 ЮЗ 4-4
{5}
20 км ясно +22.5 +17.4 73 +27 +27 душно 1014.7 1013.4
22 18.07 ЮЗ 1-2
{4}
20 км ясно +21.7 +18.1 80 +26 +26 душно 1015.1 1013.8
23 18.07 ЮЗ 1-2
{2}
20 км ясно +21.7 +18.3 81 +26 +26 душно 1015.1 1013.7
00 19.07 ЮЗ 2-3
{3}
20 км ясно +21.5 +18.5 83 +26 +26 душно 1015.3 1014.0
01 19.07 З 1-2
{3}
20 км ясно +21.1 +18.2 84 +25 +25 комфорт 1015.4 1014.1
02 19.07 З 1-1
{2}
20 км ясно +20.8 +18.2 85 +26 +26 душно 1015.7 1014.3
03 19.07 ЮЗ 1-1
{1}
10 км ясно +21.0 +18.9 88 +27 +27 душно 1015.9 1014.5
04 19.07 З 1-1
{1}
10 км 1/0
[Ac lent]
+21.4 +19.1 87 +26 +28 душно 1016.0 1014.6
05 19.07 ЮЗ 1-1
{2}
10 км ясно +21.7 +19.2 86 +27 +31 душно 1016.1 1014.7
06 19.07 СЗ 1-2
{2}
10 км ясно +22.9 0.0 22 +22 +31 комфорт 1016.5 1015.2 +20.6 +23.3
07 19.07 С 1-2
{2}
10 км 4/0
[Ac trans]
+23.5 +18.4 73 +28 +38 душно 1016.9 1015.5
08 19.07 СВ 2-3
{3}
10 км 4/3 600 м
[Cu med, cong Ac trans]
+23.6 +18.3 72 +28 +37 душно 1017.1 1015.7
09 19.07 В 2-3
{3}
10 км 5/4 600 м
[Cu med, cong Ac trans]
+24.4 +19.0 72 +29 +39 душно 1017.2 1015.9

 

Местоположение метеостанции Сулина (Румыния): широта 45.17 долгота 29.73 высота над уровнем моря 9 м.

В архиве по умолчанию представлена погода в Сулине за последнюю неделю. Архивные данные за месяц целиком и за предыдущие месяцы, начиная с января 2011 года, Вы можете получить, выбрав интересующий диапазон дат из раскрывающегося списка и нажав кнопку "Ввод!".


*Определитесь, кто Вы:
робот инопланетянин человек

Внимание! Время в таблицах - всемирное. Для получения местного времени необходимо прибавить поправку, которая равна 2 ч.

Смотрите также архив погоды в соседних городах и на ближайших метеорологических станциях:

Погода в Сфынту Георге (Румыния) (32 км)
Погода в Горгове (Румыния) (44 км)
Погода в Махмудиа (Румыния) (53 км)
Погода в Тулче (Румыния) (71 км)
Погода в Измаиле (Одесская область, Украина) (72 км)
Погода в Вилково (Одесская область, Украина) (73 км)
Погода в Гура Портитеи (Румыния) (79 км)
Погода в Журиловке (Румыния) (80 км)
Погода в Сарате (Одесская область, Украина) (95 км)
Погода в Болграде (Одесская область, Украина) (103 км)

Пояснения к столбцам:

Ветер - указаны скорость ветра в м/с - средняя за 10 мин, порывы в срок и между сроками (в фигурных скобках) и направление, откуда дует ветер: С - северный, СВ - северо-восточный, В - восточный, ЮВ - юго-восточный, Ю - южный, ЮЗ - юго-западный, З - западный, СЗ - северо-западный.
Видимость - горизонтальная дальность видимости в метрах или километрах. При видимости от 1 до 10 км при отсутствии осадков обычно наблюдается дымка, при ухудшении видимости до 1 км и менее - туман. В сухую погоду видимость может ухудшаться дымом, пылью или мглою.
Явления - указаны атмосферные явления, наблюдавшиеся в срок или в последний час перед сроком; фигурными скобками обозначены явления, наблюдавшиеся между сроками (за 1-3 часа до срока); квадратными скобками обозначены град или гололедные отложения с указанием их диаметра в мм.
Облачность - указаны через наклонную черту общая и нижняя облачность в баллах и высота нижней границы облаков в метрах; квадратными скобками обозначены формы облаков: Ci - перистые, Cs - перисто-слоистые, Cc - перисто-кучевые, Ac - высококучевые, As - высокослоистые, Sc - слоисто-кучевые, Ns - слоисто-дождевые, Cu - кучевые, Cb - кучево-дождевые. Подробнее классификацию облаков см. в Атласе облаков (PDF).
T - Температура воздуха - температура, измеренная на высоте 2 м над землей.
Td - Температура точки росы - температура, при понижении до которой содержащийся в воздухе водяной пар достигнет насыщения.
f - Относительная влажность воздуха - влажноcть воздуха, измеренная на высоте 2 м над землей.
Te - Эффективная температура - температура, которую ощущает одетый по сезону человек в тени. Характеристика душности погоды. При расчете учитывается влияние влажности воздуха и скорости ветра на теплоощущения человека.
Tes - Эффективная температура на солнце - температура, которую ощущает человек, с поправкой на солнечный нагрев. Характеристика знойности погоды. Зависит от высоты солнца над горизонтом, облачности и скорости ветра. Ночью, в пасмурную погоду, а также при ветре 12 м/с и более поправка равна нулю.
P - Атмосферное давление - приведенное к уровню моря атмосферное давление.
Po - Атмосферное давление - измеренное на уровне метеостанции атмосферное давление.
Tmin - Минимальная температура - минимум температуры воздуха на высоте 2 м над землей.
Tmax - Максимальная температура - максимум температуры воздуха на высоте 2 м над землей.
R - Количество осадков - Количество выпавших осадков за период времени, мм. При наведении курсора мыши на число - период времени, за который выпало указанное количество осадков.
R24 - Количество осадков - Количество выпавших осадков за 24 часа, мм.
S - Снежный покров - Высота снежного покрова, см. При наведении курсора мыши на число - состояние снежного покрова и степень покрытия местности в баллах.